• In Hungary
  • List of Countries
  • For 7 days
  • Water Temperature
  • Satellite Maps
  • Weather Map
  • News
  • Weather Widgets
  • user-avatar
    Login

    Hourly Weather Mordvinovka

    Today, 22 June, Friday

    Time Temperature Precipitation Wind Pressure Humidity
    00:00 +17°C° 0 mm 2 mps 748 mmHg 91%
    01:00 +17°C° 0 mm 2 mps 748 mmHg 91%
    02:00 +16°C° 0 mm 2 mps 749 mmHg 91%
    03:00 +16°C° 0 mm 2 mps 748 mmHg 90%
    04:00 +18°C° 0 mm 1 mps 748 mmHg 88%
    05:00 +19°C° 0 mm 1 mps 749 mmHg 86%
    06:00 +18°C° 0 mm 0 mps 749 mmHg 83%
    07:00 +21°C° 0 mm 1 mps 749 mmHg 78%
    08:00 +23°C° 0 mm 1 mps 749 mmHg 72%
    09:00 +25°C° 0 mm 1 mps 749 mmHg 67%
    10:00 +26°C° 0 mm 1 mps 749 mmHg 63%
    11:00 +27°C° 0 mm 2 mps 749 mmHg 59%
    12:00 +27°C° 0 mm 2 mps 749 mmHg 56%
    13:00 +28°C° 0 mm 2 mps 749 mmHg 54%
    14:00 +28°C° 0 mm 2 mps 748 mmHg 53%
    15:00 +29°C° 0 mm 2 mps 748 mmHg 51%
    16:00 +29°C° 0 mm 1 mps 748 mmHg 54%
    17:00 +28°C° 0 mm 1 mps 748 mmHg 58%
    18:00 +28°C° 0 mm 1 mps 748 mmHg 61%
    19:00 +26°C° 0 mm 1 mps 748 mmHg 65%
    20:00 +24°C° 0 mm 1 mps 748 mmHg 68%
    21:00 +22°C° 0 mm 1 mps 748 mmHg 71%
    22:00 +21°C° 0 mm 1 mps 748 mmHg 73%
    23:00 +21°C° 0 mm 1 mps 748 mmHg 74%

    Tomorrow, 23 June, Saturday

    Time Temperature Precipitation Wind Pressure Humidity
    00:00 +19°C° 0 mm 2 mps 748 mmHg 76%
    01:00 +19°C° 0 mm 2 mps 748 mmHg 77%
    02:00 +18°C° 0 mm 2 mps 748 mmHg 79%
    03:00 +18°C° 0 mm 2 mps 748 mmHg 80%
    04:00 +19°C° 0 mm 2 mps 748 mmHg 81%
    05:00 +19°C° 0 mm 2 mps 748 mmHg 81%
    06:00 +20°C° 0 mm 2 mps 749 mmHg 82%
    07:00 +22°C° 0 mm 3 mps 749 mmHg 78%
    08:00 +24°C° 0 mm 3 mps 749 mmHg 74%
    09:00 +26°C° 0 mm 3 mps 749 mmHg 70%
    10:00 +27°C° 0 mm 3 mps 748 mmHg 65%
    11:00 +28°C° 0 mm 3 mps 748 mmHg 61%
    12:00 +29°C° 0 mm 3 mps 748 mmHg 56%
    13:00 +29°C° 0 mm 3 mps 748 mmHg 56%
    14:00 +29°C° 0 mm 3 mps 748 mmHg 56%
    15:00 +30°C° 0 mm 3 mps 748 mmHg 55%
    16:00 +29°C° 0 mm 3 mps 747 mmHg 60%
    17:00 +29°C° 0 mm 3 mps 747 mmHg 64%
    18:00 +29°C° 0 mm 2 mps 747 mmHg 68%
    19:00 +27°C° 0 mm 2 mps 747 mmHg 71%
    20:00 +25°C° 0 mm 3 mps 747 mmHg 74%
    21:00 +22°C° 0 mm 3 mps 747 mmHg 77%
    22:00 +21°C° 0 mm 3 mps 747 mmHg 77%
    23:00 +21°C° 0 mm 3 mps 747 mmHg 76%

    Day after tomorrow, 24 June, Sunday

    Time Temperature Precipitation Wind Pressure Humidity
    00:00 +20°C° 0 mm 4 mps 746 mmHg 76%
    01:00 +19°C° 0 mm 4 mps 746 mmHg 74%
    02:00 +19°C° 0 mm 4 mps 746 mmHg 72%
    03:00 +19°C° 0 mm 4 mps 746 mmHg 70%
    04:00 +19°C° 0 mm 4 mps 746 mmHg 71%
    05:00 +19°C° 0 mm 4 mps 746 mmHg 72%
    06:00 +19°C° 0 mm 4 mps 746 mmHg 73%
    07:00 +21°C° 0 mm 5 mps 746 mmHg 69%
    08:00 +22°C° 0 mm 5 mps 746 mmHg 65%
    09:00 +24°C° 0 mm 6 mps 746 mmHg 60%
    10:00 +26°C° 0 mm 6 mps 746 mmHg 58%
    11:00 +27°C° 0 mm 6 mps 746 mmHg 56%
    12:00 +28°C° 0 mm 6 mps 747 mmHg 54%
    13:00 +28°C° 0 mm 5 mps 747 mmHg 55%
    14:00 +28°C° 0 mm 5 mps 747 mmHg 57%
    15:00 +28°C° 0 mm 4 mps 747 mmHg 59%
    16:00 +27°C° 0.2 mm 4 mps 747 mmHg 64%
    17:00 +27°C° 0.2 mm 3 mps 747 mmHg 69%
    18:00 +26°C° 0.2 mm 3 mps 747 mmHg 74%
    19:00 +24°C° 0 mm 2 mps 747 mmHg 77%
    20:00 +23°C° 0 mm 1 mps 748 mmHg 81%
    21:00 +22°C° 0 mm 1 mps 748 mmHg 84%
    22:00 +22°C° 0.3 mm 1 mps 748 mmHg 85%
    23:00 +21°C° 0.3 mm 1 mps 748 mmHg 85%

    25 June, Monday

    Time Temperature Precipitation Wind Pressure Humidity
    00:00 +19°C° 0.3 mm 0 mps 748 mmHg 86%
    01:00 +21°C° 0.1 mm 1 mps 749 mmHg 88%
    02:00 +20°C° 0.1 mm 1 mps 749 mmHg 90%
    03:00 +20°C° 0.1 mm 1 mps 749 mmHg 92%
    04:00 +20°C° 0.7 mm 1 mps 749 mmHg 92%
    05:00 +19°C° 0.7 mm 2 mps 749 mmHg 92%
    06:00 +19°C° 0.7 mm 2 mps 749 mmHg 92%
    07:00 +20°C° 0.3 mm 2 mps 749 mmHg 91%
    08:00 +20°C° 0.3 mm 2 mps 750 mmHg 90%
    09:00 +21°C° 0.3 mm 2 mps 750 mmHg 89%
    10:00 +23°C° 0.6 mm 2 mps 750 mmHg 85%
    11:00 +24°C° 0.6 mm 2 mps 750 mmHg 82%
    12:00 +25°C° 0.6 mm 2 mps 750 mmHg 79%
    13:00 +25°C° 0.6 mm 2 mps 750 mmHg 76%
    14:00 +26°C° 0.6 mm 2 mps 750 mmHg 74%
    15:00 +26°C° 0.6 mm 2 mps 750 mmHg 72%
    16:00 +26°C° 1.1 mm 2 mps 750 mmHg 74%
    17:00 +25°C° 1.1 mm 3 mps 750 mmHg 76%
    18:00 +25°C° 1.1 mm 3 mps 750 mmHg 79%
    19:00 +24°C° 0 mm 3 mps 751 mmHg 84%
    20:00 +21°C° 0 mm 3 mps 751 mmHg 88%
    21:00 +19°C° 0 mm 3 mps 751 mmHg 93%
    22:00 +19°C° 0 mm 3 mps 751 mmHg 94%
    23:00 +18°C° 0 mm 3 mps 751 mmHg 94%

    26 June, Tuesday

    Time Temperature Precipitation Wind Pressure Humidity
    00:00 +17°C° 0 mm 3 mps 751 mmHg 94%
    01:00 +17°C° 0 mm 3 mps 751 mmHg 94%
    02:00 +16°C° 0 mm 3 mps 751 mmHg 94%
    03:00 +16°C° 0 mm 3 mps 751 mmHg 93%
    04:00 +16°C° 0 mm 3 mps 751 mmHg 91%
    05:00 +17°C° 0 mm 4 mps 751 mmHg 89%
    06:00 +17°C° 0 mm 4 mps 751 mmHg 86%
    07:00 +19°C° 0 mm 4 mps 751 mmHg 83%
    08:00 +20°C° 0 mm 4 mps 751 mmHg 81%
    09:00 +22°C° 0 mm 4 mps 751 mmHg 78%
    10:00 +23°C° 0 mm 4 mps 751 mmHg 75%
    11:00 +25°C° 0 mm 4 mps 751 mmHg 71%
    12:00 +26°C° 0 mm 4 mps 751 mmHg 68%
    13:00 +27°C° 0 mm 4 mps 751 mmHg 67%
    14:00 +27°C° 0 mm 3 mps 750 mmHg 65%
    15:00 +28°C° 0 mm 3 mps 750 mmHg 64%
    16:00 +27°C° 0.1 mm 3 mps 750 mmHg 67%
    17:00 +27°C° 0.1 mm 3 mps 750 mmHg 69%
    18:00 +27°C° 0.1 mm 3 mps 750 mmHg 72%
    19:00 +25°C° 0 mm 3 mps 750 mmHg 77%
    20:00 +22°C° 0 mm 3 mps 750 mmHg 81%
    21:00 +21°C° 0 mm 3 mps 750 mmHg 86%
    22:00 +20°C° 0 mm 3 mps 750 mmHg 86%
    23:00 +19°C° 0 mm 3 mps 750 mmHg 86%

    27 June, Wednesday

    Time Temperature Precipitation Wind Pressure Humidity
    00:00 +19°C° 0 mm 3 mps 750 mmHg 87%
    01:00 +18°C° 0.1 mm 3 mps 750 mmHg 88%
    02:00 +18°C° 0.1 mm 3 mps 749 mmHg 89%
    03:00 +18°C° 0.1 mm 3 mps 749 mmHg 90%
    04:00 +18°C° 0.2 mm 3 mps 749 mmHg 90%
    05:00 +19°C° 0.2 mm 3 mps 749 mmHg 90%
    06:00 +20°C° 0.2 mm 3 mps 749 mmHg 90%
    07:00 +21°C° 0 mm 3 mps 749 mmHg 86%
    08:00 +24°C° 0 mm 3 mps 749 mmHg 82%
    09:00 +25°C° 0 mm 3 mps 749 mmHg 78%
    10:00 +27°C° 0 mm 3 mps 749 mmHg 74%
    11:00 +28°C° 0 mm 3 mps 749 mmHg 70%
    12:00 +29°C° 0 mm 2 mps 749 mmHg 66%
    13:00 +30°C° 0.3 mm 2 mps 748 mmHg 64%
    14:00 +31°C° 0.3 mm 2 mps 748 mmHg 62%
    15:00 +31°C° 0.3 mm 2 mps 748 mmHg 60%
    16:00 +31°C° 0.3 mm 2 mps 748 mmHg 63%
    17:00 +31°C° 0.3 mm 2 mps 748 mmHg 65%
    18:00 +31°C° 0.3 mm 2 mps 748 mmHg 68%
    19:00 +29°C° 1.8 mm 2 mps 748 mmHg 73%
    20:00 +27°C° 1.8 mm 3 mps 747 mmHg 79%
    21:00 +25°C° 1.8 mm 4 mps 747 mmHg 84%
    22:00 +25°C° 1.4 mm 3 mps 748 mmHg 84%
    23:00 +24°C° 1.4 mm 3 mps 748 mmHg 85%
    Show more